Regional Weather Roundup
Issued by NWS Mt. Holly, NJ

Home | Current Version | Previous Version | Text Only | Print | Product List | Glossary On
Versions: 1 2 3 4 5 6 7 8 9 10 11 12 13 14 15 16 17 18 19 20 21 22 23 24 25 26 27 28 29 30 31 32 33 34 35 36 37 38 39 40 41 42 43 44 45 46 47 48 49 50
000
ASUS41 KPHI 232010
RWRPHI

REGIONAL WEATHER ROUNDUP
NATIONAL WEATHER SERVICE MOUNT HOLLY NJ
400 PM EDT TUE SEP 23 2014

NOTE:  "FAIR" INDICATES FEW OR NO CLOUDS BELOW 12,000 FEET WITH NO
SIGNIFICANT WEATHER AND/OR OBSTRUCTIONS TO VISIBILITY.

 * = STATION DOES NOT REPORT PRECIPITATION (E.G. RAIN, SNOW, ETC.)
        OR FOG.

NJZ015>026-232100-
SOUTHERN NEW JERSEY

CITY           SKY/WX    TMP DP  RH WIND       PRES   REMARKS
POMONA         PTSUNNY   65  49  56 E6        30.32F
RIO GRANDE*    CLOUDY    64  46  52 SE8       30.34F
MILLVILLE      PTSUNNY   66  47  50 E6        30.31F
WRIGHTSTOWN    MOSUNNY   69  45  42 E5        30.29F
MOUNT HOLLY    MOSUNNY   69  42  37 CALM      30.31F
TRENTON        SUNNY     70  43  37 SW8       30.31F

$$
NJZ001>014-232100-
NORTHERN NEW JERSEY

CITY           SKY/WX    TMP DP  RH WIND       PRES   REMARKS
SUSSEX         SUNNY     73  45  36 VRB6      30.31S
ANDOVER*         N/A     71  43  36 VRB3      30.31F
MORRISTOWN     SUNNY     72  43  35 S3        30.30F
NEWARK         MOSUNNY   72  41  32 VRB7      30.30F
TETERBORO      SUNNY     74  41  30 VRB5      30.29F
CALDWELL       SUNNY     71  43  36 CALM      30.30F
SOMERVILLE     SUNNY     73  42  32 VRB3      30.29F
ALLAIRE*       SUNNY     70  46  43 CALM      30.32S
TOMS RIVER*    MOSUNNY   70  46  43 CALM      30.32S

$$
PAZ043-044-047-054-055-060>062-066>071-232100-
EASTERN PENNSYLVANIA

CITY           SKY/WX    TMP DP  RH WIND       PRES   REMARKS
PHILADELPHIA   PTSUNNY   71  42  35 SE6       30.32F
NORTH PHILA    MOSUNNY   72  38  29 CALM      30.33F
BLUE BELL      SUNNY     72  43  35 CALM      30.31F
DOYLESTOWN     SUNNY     71  41  33 CALM      30.31F
QUAKERTOWN*    SUNNY     72  43  35 CALM      30.32F
POTTSTOWN      SUNNY     70  44  39 NW5       30.33F
LANCASTER      SUNNY     70  42  36 VRB3      30.32F
COATESVILLE    SUNNY     66  45  45 CALM      30.33F
READING        SUNNY     71  43  36 VRB5      30.31F
ALLENTOWN      SUNNY     71  41  33 W3        30.32S
MOUNT POCONO   SUNNY     67  42  40 CALM      30.34R
HAZLETON       SUNNY     66  45  45 CALM      30.37S
WILKES BARRE   SUNNY     69  46  43 VRB6      30.33F

$$
DEZALL-MDZ008-012-015-019-020-232100-
DELAWARE AND EASTERN MARYLAND

CITY           SKY/WX    TMP DP  RH WIND       PRES   REMARKS
WILMINGTON     MOSUNNY   69  44  40 E8        30.32F
DOVER          PTSUNNY   64  46  52 E8        30.31F
GEORGETOWN     CLOUDY    64  45  49 NE9       30.33F
EASTON         PTSUNNY   68  48  49 NE7       30.35F
PATUXENT       CLOUDY    66  43  43 N8        30.31F
OCEAN CITY     CLOUDY    64  45  49 NE8       30.32F
WALLOPS ISLAND CLOUDY    64  50  60 E9        30.32F
CAMBRIDGE      CLOUDY    66  45  45 CALM      30.31S
SALISBURY      CLOUDY    66  47  50 NE5       30.31F

$$
PAZ001-021-NYZ056-072-MDZ011-DCZ001-232100-
OTHER NEARBY LOCATIONS

CITY           SKY/WX    TMP DP  RH WIND       PRES   REMARKS
HARRISBURG     MOSUNNY   71  47  42 SW5       30.31F
STATE COLLEGE  SUNNY     66  45  45 CALM      30.34F
WILLIAMSPORT   SUNNY     70  46  42 NE3       30.32F
BINGHAMTON     MOSUNNY   65  49  56 W7        30.34S
NEW YORK CITY  SUNNY     70  40  33 CALM      30.33F
BALTIMORE      PTSUNNY   70  43  37 VRB3      30.30F
WASHINGTON DC  PTSUNNY   74  43  32 NE8       30.32F

$$



USA.gov is the U.S. government's official web portal to all federal, state and local government web resources and services.